Location: Taukkyan
(23.1052°N, 94.0030°E)
Time: 11:50:23
(UTC+00:00)

Cosmos 1656 - Pass Details

Date: 06 July 2020
Orbit: 799 x 848 km, 71.1° (Epoch: 14 August)

Event Time Altitude Azimuth Distance (km) Brightness Sun altitude
Rises 22:11:04 0° 329° (NNW) 3,304 6.8 -11.6°
Reaches altitude 10° 22:13:40 10° 320° (NW) 2,375 6.0 -11.1°
Maximum altitude 22:18:30 34° 257° (WSW) 1,302 4.2 -10.1°
Drops below altitude 10° 22:23:22 10° 193° (SSW) 2,386 5.7 -9.2°
Sets 22:25:59 0° 184° (S) 3,323 6.5 -8.6°
